[[{"header":{"parameterUnit":"m.s-1","parameterCategory":1,"la1":30.2991,"la2":30.254,"lo1":-89.0895,"lo2":-89.0444,"dy":0.0017,"dx":0.0017,"nx":28,"ny":28,"refTime":"2025-07-09T09:00:00:Z","depth":0,"parameterNumber":2,"parameterNumberName":"U-component_of_WINDS"},"data":[0,0,0,0,0,0,0,0,0,0,0,0,0,0,0,0,0,0,0,0,0,0,0,0,0,0,0,0,0,0,0,0,0,0,0,0,0,0,0,0,0,0,0,0,0,0,0,0,0,0,0,0,0,0,0,0,0,0,3.1455,3.1455,0,3.1459,3.146,3.146,3.1349,3.1346,3.1343,3.134,3.1347,3.135,3.1353,0,0,0,0,0,0,0,0,0,0,0,0,0,3.1352,3.1354,3.1455,3.1455,3.1455,3.1459,3.146,3.146,3.135,3.1346,3.1342,3.1339,3.1346,3.1349,3.1353,0,0,0,0,0,0,0,0,0,0,0,0,0,3.1381,3.1355,3.1455,3.14,3.1396,3.1459,3.146,3.146,3.135,3.1346,3.1342,3.1337,3.1345,3.1349,3.1353,3.147,0,0,3.1367,3.1369,0,0,0,0,0,0,0,0,3.1379,3.1384,3.1408,3.1404,3.1399,3.1399,3.1425,3.1463,3.1352,3.1368,3.134,3.1335,3.1368,3.137,3.1381,3.147,3.147,3.1367,3.137,3.1372,3.1373,0,0,0,0,0,0,0,3.1377,3.1384,3.1456,3.1409,3.1403,3.1376,3.1376,3.1432,3.1393,3.1366,3.1358,3.136,3.1365,3.1377,3.138,3.1471,3.1367,3.1371,3.1374,3.1376,3.1656,3.1661,0,0,0,0,0,0,3.1382,3.1383,3.1456,3.1457,3.1378,3.1382,3.1381,3.1404,3.1392,3.1386,3.1364,3.1355,3.1372,3.1375,3.138,3.1516,3.1372,3.1376,3.1379,3.1651,3.1657,3.1662,0,0,0,0,0,0,3.1381,3.139,3.1456,3.1417,3.1424,3.1388,3.1415,3.1406,3.1418,3.139,3.1383,3.1384,3.1368,3.1374,3.1448,3.1514,3.1378,3.1382,3.1646,3.1653,3.166,3.1788,0,0,0,0,0,0,3.1378,3.139,3.1433,3.1419,3.1426,3.1524,3.1419,3.1409,3.1426,3.1414,3.1407,3.1401,3.1365,3.1442,3.1453,3.1518,3.1385,3.164,3.1649,3.1657,3.1778,3.1799,3.1817,0,0,0,0,0,3.1375,3.1469,3.1436,3.1446,3.148,3.1528,3.1532,3.1488,3.1432,3.1475,3.1457,3.1401,3.1506,3.1451,3.1462,3.1529,3.1635,3.1646,3.1657,3.1769,3.1795,3.1816,0,0,0,0,0,0,3.1492,3.1467,3.1429,3.1522,3.1528,3.1509,3.1563,3.1517,3.1539,3.1528,3.1473,3.1472,3.1556,3.155,3.1489,3.1642,3.156,3.1574,3.1642,3.1666,3.1685,3.1685,3.1389,0,0,0,0,0,3.1529,3.157,3.1545,3.163,3.1635,3.1599,3.1618,3.1584,3.1588,3.159,3.1578,3.1584,3.1618,3.1642,3.1672,3.1777,3.1774,3.1829,3.1848,3.1864,3.1876,3.1932,3.1956,3.1698,3.1698,3.1698,0,0,3.1605,3.1596,3.1626,3.1653,3.1654,3.1698,3.1602,3.1652,3.1685,3.1598,3.1667,3.1659,3.1663,3.1753,3.1792,3.1751,3.1947,3.1878,3.1891,3.1894,3.1945,3.197,3.1992,3.1705,3.1704,3.1703,0,0,3.1767,3.1764,3.1834,3.1837,3.1839,3.1815,3.1832,3.182,3.1811,3.188,3.1816,3.1854,3.1914,3.1919,3.193,3.2095,3.2045,3.2107,3.2208,3.2263,3.2283,3.2301,3.236,3.2382,3.2119,3.2119,3.212,0,3.1861,3.1925,3.1876,3.1931,3.1945,3.1869,3.194,3.1945,3.1958,3.197,3.1923,3.1997,3.1994,3.2085,3.2125,3.2137,3.2155,3.2107,3.2284,3.2302,3.2317,3.2373,3.2395,3.2127,3.2126,3.2125,3.2125,0,3.2041,3.2086,3.2143,3.2156,3.2177,3.224,3.2201,3.2228,3.2193,3.2174,3.2246,3.224,3.2267,3.2286,3.2252,3.2373,3.2347,3.2294,3.2211,3.235,3.2402,3.2423,3.2138,3.2135,3.2133,3.2131,0,0,3.2275,3.2262,3.2283,3.2289,3.2286,3.2321,3.2381,3.2407,3.2432,3.2443,3.2492,3.2545,3.2496,3.2508,3.2474,3.2522,3.2654,3.2463,3.2462,3.2498,3.2787,3.2827,3.2852,3.2621,3.2625,3.2628,3.2786,0,3.2432,3.2533,3.2491,3.2596,3.2638,3.2567,3.2619,3.2623,3.2608,3.2641,3.2623,3.2662,3.2594,3.2601,3.2645,3.2629,3.2711,3.2617,3.2666,3.2668,3.2667,3.2879,3.2921,3.3071,3.2806,3.2809,3.2812,0,3.2628,3.2647,3.2756,3.2747,3.2763,3.2811,3.2832,3.2865,3.2869,3.2854,3.2869,3.2824,3.2883,3.2801,3.2882,3.2819,3.2837,3.2832,3.2836,3.2839,3.2748,3.2887,3.3117,3.314,3.2843,3.284,3.2838,0,3.2788,3.2841,3.2913,3.292,3.2911,3.2947,3.2945,3.2944,3.2963,3.2983,3.2994,3.3021,3.3035,3.3057,3.3021,3.2965,3.3107,3.3022,3.3096,3.3097,3.3129,3.3127,3.3365,3.3141,3.3141,3.3141,3.314,0,3.2967,3.3036,3.2985,3.303,3.3106,3.3058,3.3135,3.3125,3.3126,3.3168,3.3108,3.3149,3.3099,3.3135,3.3108,3.3179,3.3186,3.3175,3.3167,3.3181,3.3182,3.3191,3.318,3.3147,3.3145,3.3144,3.3143,0,3.3158,3.3127,3.3201,3.3186,3.3184,3.3241,3.3229,3.327,3.325,3.3304,3.3314,3.3283,3.3323,3.3289,3.3328,3.3309,3.3403,3.3381,3.3402,3.3395,3.3472,3.3465,3.3724,3.3755,3.3512,3.3514,3.3516,0,3.3274,3.3326,3.3317,3.3341,3.3342,3.3381,3.34,3.3356,3.3378,3.3388,3.3428,3.3462,3.3487,3.3554,3.3535,3.3564,3.3541,3.363,3.3545,3.3557,3.3542,3.354,3.3545,3.3647,3.365,3.3652,3.3654,0,3.3483,3.3465,3.3495,3.352,3.3544,3.3562,3.3574,3.3597,3.3552,3.3581,3.362,3.364,3.3679,3.3714,3.3737,3.3735,3.3688,3.3681,3.37,3.3714,3.3724,3.3719,3.3449,3.3675,3.3673,3.3672,3.3671,3.367,3.364,3.3683,3.3683,3.3719,3.3724,3.3738,3.3775,3.3761,3.3793,3.3821,3.3793,3.3841,3.3845,3.3871,3.3875,3.3912,3.3875,3.3903,3.3909,3.3917,3.3928,3.3719,3.3917,3.3916,3.3915,3.3915,3.3914,0,3.3845,3.3843,3.3876,3.3896,3.3924,3.3877,3.3889,3.3915,3.3958,3.3966,3.3992,3.4038,3.4072,3.4056,3.4086,3.4119,3.4098,3.4128,3.4125,3.4125,3.3959,3.394,3.4145,3.4145,3.4145,3.4145,3.4144,3.4144,3.3956,3.4026,3.4009,3.4081,3.4078,3.4124,3.4135,3.4148,3.4153,3.4207,3.4235,3.4225,3.4223,3.4252,3.4282,3.4276,3.429,3.4328,3.4315,3.416,3.4137,3.4115,3.4097,3.4332,3.4332,3.4478,3.448,3.4481]},{"header":{"parameterUnit":"m.s-1","parameterCategory":1,"la1":30.2991,"la2":30.254,"lo1":-89.0895,"lo2":-89.0444,"dy":0.0017,"dx":0.0017,"nx":28,"ny":28,"refTime":"2025-07-09T09:00:00:Z","depth":0,"parameterNumber":3,"parameterNumberName":"V-component_of_WINDS"},"data":[0,0,0,0,0,0,0,0,0,0,0,0,0,0,0,0,0,0,0,0,0,0,0,0,0,0,0,0,0,0,0,0,0,0,0,0,0,0,0,0,0,0,0,0,0,0,0,0,0,0,0,0,0,0,0,0,0,0,-2.0938,-2.094,0,-2.1085,-2.1087,-2.1089,-2.1104,-2.1102,-2.1101,-2.1099,-2.1254,-2.126,-2.1265,0,0,0,0,0,0,0,0,0,0,0,0,0,-2.0674,-2.0678,-2.0938,-2.094,-2.0942,-2.1085,-2.1087,-2.1089,-2.1104,-2.1102,-2.11,-2.1099,-2.1252,-2.1259,-2.1266,0,0,0,0,0,0,0,0,0,0,0,0,0,-2.0802,-2.068,-2.0938,-2.0966,-2.097,-2.1085,-2.1087,-2.109,-2.1104,-2.1102,-2.11,-2.1098,-2.125,-2.1258,-2.1267,-2.1364,0,0,-2.1292,-2.1296,0,0,0,0,0,0,0,0,-2.0794,-2.0811,-2.096,-2.0965,-2.0969,-2.1074,-2.1051,-2.1182,-2.1105,-2.1054,-2.1099,-2.1097,-2.1196,-2.1209,-2.1242,-2.1371,-2.1378,-2.1293,-2.1298,-2.1301,-2.1304,0,0,0,0,0,0,0,-2.0785,-2.0805,-2.0996,-2.0962,-2.0968,-2.0973,-2.0989,-2.1076,-2.1136,-2.1058,-2.1059,-2.1076,-2.1198,-2.1234,-2.1245,-2.138,-2.1292,-2.13,-2.1305,-2.1308,-2.1597,-2.1599,0,0,0,0,0,0,-2.0771,-2.0798,-2.0992,-2.1001,-2.0874,-2.098,-2.0997,-2.1043,-2.1135,-2.1147,-2.1078,-2.1077,-2.1221,-2.1236,-2.1251,-2.1371,-2.1301,-2.1309,-2.1314,-2.1594,-2.1597,-2.16,0,0,0,0,0,0,-2.0765,-2.0788,-2.0986,-2.09,-2.0925,-2.0987,-2.1038,-2.1047,-2.1082,-2.115,-2.1162,-2.1103,-2.1219,-2.1239,-2.1335,-2.1376,-2.1313,-2.132,-2.1591,-2.1595,-2.1599,-2.1611,0,0,0,0,0,0,-2.0757,-2.0786,-2.0822,-2.09,-2.093,-2.1066,-2.104,-2.1051,-2.1096,-2.1095,-2.1177,-2.1188,-2.1219,-2.1323,-2.1344,-2.1387,-2.1327,-2.1588,-2.1593,-2.1598,-2.1607,-2.1615,-2.1621,0,0,0,0,0,-2.0748,-2.0821,-2.0824,-2.0847,-2.0976,-2.1069,-2.1086,-2.1119,-2.1099,-2.1137,-2.1181,-2.1185,-2.1369,-2.1333,-2.1356,-2.1402,-2.1585,-2.1591,-2.1597,-2.1604,-2.1613,-2.1621,0,0,0,0,0,0,-2.0747,-2.0831,-2.0836,-2.0936,-2.0995,-2.1071,-2.112,-2.1128,-2.1195,-2.1191,-2.1231,-2.1249,-2.1344,-2.1383,-2.1341,-2.1501,-2.1475,-2.1486,-2.1472,-2.1482,-2.1489,-2.1477,-2.1334,0,0,0,0,0,-2.0758,-2.0825,-2.0895,-2.0977,-2.1006,-2.1058,-2.1099,-2.112,-2.1183,-2.1208,-2.126,-2.1322,-2.1393,-2.144,-2.151,-2.1613,-2.1631,-2.1657,-2.1664,-2.1669,-2.1678,-2.1736,-2.1748,-2.162,-2.162,-2.162,0,0,-2.0783,-2.0837,-2.0877,-2.0978,-2.1026,-2.1095,-2.1079,-2.1153,-2.1205,-2.122,-2.1313,-2.1353,-2.1426,-2.1526,-2.1572,-2.1561,-2.1718,-2.1677,-2.1681,-2.1687,-2.1743,-2.1756,-2.1766,-2.1624,-2.1623,-2.1623,0,0,-2.0862,-2.091,-2.0983,-2.1031,-2.1103,-2.1137,-2.1155,-2.123,-2.1257,-2.1351,-2.1364,-2.1427,-2.155,-2.16,-2.1642,-2.1742,-2.1748,-2.1763,-2.1801,-2.1857,-2.1867,-2.1876,-2.1911,-2.1923,-2.1772,-2.1772,-2.1772,0,-2.0883,-2.0987,-2.1019,-2.1093,-2.1137,-2.1153,-2.1228,-2.1274,-2.1366,-2.1397,-2.1383,-2.1537,-2.1587,-2.1699,-2.1723,-2.1757,-2.1779,-2.1754,-2.1862,-2.1872,-2.1881,-2.1915,-2.1928,-2.1774,-2.1773,-2.1773,-2.1773,0,-2.1009,-2.1081,-2.1132,-2.1218,-2.1269,-2.1343,-2.1388,-2.1435,-2.1452,-2.1487,-2.1583,-2.1644,-2.1726,-2.1754,-2.1772,-2.187,-2.186,-2.1854,-2.1828,-2.1894,-2.1927,-2.194,-2.1775,-2.1775,-2.1775,-2.1774,0,0,-2.1092,-2.1196,-2.1214,-2.1253,-2.1335,-2.1391,-2.1467,-2.1546,-2.1586,-2.1649,-2.1713,-2.1817,-2.1811,-2.1859,-2.1882,-2.1932,-2.2006,-2.1919,-2.1922,-2.1933,-2.2118,-2.2122,-2.2136,-2.2011,-2.2014,-2.2016,-2.2112,0,-2.118,-2.1312,-2.1344,-2.1458,-2.1525,-2.1541,-2.1607,-2.1665,-2.17,-2.1763,-2.1804,-2.1876,-2.1863,-2.1892,-2.1942,-2.1986,-2.2044,-2.198,-2.2072,-2.2075,-2.2053,-2.2153,-2.2158,-2.2245,-2.2125,-2.2127,-2.2129,0,-2.1301,-2.1365,-2.1485,-2.1557,-2.1587,-2.1645,-2.172,-2.178,-2.1846,-2.1869,-2.1922,-2.194,-2.202,-2.1991,-2.2102,-2.2058,-2.2098,-2.2126,-2.213,-2.214,-2.2105,-2.2165,-2.2274,-2.2287,-2.2149,-2.2148,-2.2146,0,-2.1348,-2.1465,-2.1552,-2.1586,-2.1672,-2.1713,-2.1751,-2.1815,-2.1861,-2.1927,-2.1957,-2.2033,-2.2074,-2.2133,-2.2172,-2.2146,-2.228,-2.2254,-2.2302,-2.2301,-2.2329,-2.2326,-2.2444,-2.2355,-2.2355,-2.2355,-2.2354,0,-2.1443,-2.1516,-2.1574,-2.1628,-2.171,-2.1747,-2.1828,-2.1867,-2.1924,-2.1986,-2.2006,-2.2064,-2.2112,-2.2177,-2.2208,-2.2296,-2.2315,-2.2336,-2.2343,-2.2334,-2.2331,-2.236,-2.2355,-2.2358,-2.2357,-2.2357,-2.2356,0,-2.151,-2.1552,-2.1648,-2.1722,-2.1742,-2.18,-2.1864,-2.1917,-2.1953,-2.2032,-2.2053,-2.211,-2.2188,-2.2232,-2.2331,-2.2352,-2.2449,-2.2454,-2.2426,-2.243,-2.2475,-2.247,-2.2616,-2.2637,-2.2533,-2.2534,-2.2535,0,-2.1567,-2.1623,-2.1703,-2.1745,-2.1784,-2.1852,-2.1898,-2.1937,-2.1985,-2.2065,-2.2109,-2.2187,-2.2252,-2.2376,-2.2428,-2.2504,-2.251,-2.2556,-2.2522,-2.251,-2.2511,-2.2506,-2.2512,-2.2562,-2.2563,-2.2563,-2.2564,0,-2.1665,-2.1683,-2.1748,-2.182,-2.1874,-2.1934,-2.1993,-2.2027,-2.2076,-2.2129,-2.2208,-2.2258,-2.2358,-2.2437,-2.2516,-2.2558,-2.257,-2.2574,-2.259,-2.258,-2.2562,-2.2572,-2.2442,-2.2571,-2.257,-2.257,-2.2569,-2.2569,-2.1729,-2.1779,-2.1843,-2.1915,-2.1963,-2.2018,-2.2071,-2.2114,-2.218,-2.2263,-2.2283,-2.2366,-2.2432,-2.254,-2.2584,-2.265,-2.2642,-2.2664,-2.267,-2.2675,-2.2676,-2.2551,-2.2665,-2.2665,-2.2665,-2.2665,-2.2665,0,-2.1827,-2.1868,-2.1934,-2.2015,-2.2072,-2.2077,-2.2143,-2.2191,-2.2263,-2.2323,-2.2386,-2.2477,-2.2553,-2.2611,-2.2689,-2.2731,-2.2739,-2.2751,-2.2748,-2.2757,-2.2679,-2.2657,-2.2743,-2.2743,-2.2743,-2.2743,-2.2743,-2.2743,-2.1884,-2.197,-2.1995,-2.2106,-2.2148,-2.2228,-2.2265,-2.2316,-2.2364,-2.2464,-2.2527,-2.2563,-2.2623,-2.2705,-2.2776,-2.2791,-2.2819,-2.283,-2.2846,-2.2771,-2.2763,-2.2755,-2.2735,-2.2836,-2.2836,-2.2919,-2.2919,-2.292]}]]